• In Hungary
  • List of Countries
  • For 7 days
  • Water Temperature
  • Satellite Maps
  • Weather Map
  • News
  • Weather Widgets
  • user-avatar
    Login

    Hourly Weather Godawy

    Today, 23 October, Tuesday

    Time Temperature Precipitation Wind Pressure Humidity
    00:00 +5°C° 0 mm 4 mps 759 mmHg 84%
    01:00 +4°C° 0 mm 4 mps 758 mmHg 86%
    02:00 +4°C° 0 mm 4 mps 757 mmHg 85%
    03:00 +3°C° 0 mm 5 mps 756 mmHg 84%
    04:00 +3°C° 0 mm 5 mps 755 mmHg 83%
    05:00 +3°C° 0.1 mm 6 mps 754 mmHg 81%
    06:00 +4°C° 0.1 mm 7 mps 753 mmHg 79%
    07:00 +4°C° 0.1 mm 8 mps 752 mmHg 77%
    08:00 +3°C° 0.9 mm 9 mps 751 mmHg 77%
    09:00 +3°C° 0.9 mm 10 mps 749 mmHg 77%
    10:00 +4°C° 0.9 mm 11 mps 748 mmHg 78%
    11:00 +4°C° 0.8 mm 11 mps 746 mmHg 78%
    12:00 +6°C° 0.8 mm 11 mps 745 mmHg 79%
    13:00 +7°C° 0.8 mm 12 mps 744 mmHg 79%
    14:00 +7°C° 1.3 mm 11 mps 743 mmHg 81%
    15:00 +8°C° 1.3 mm 10 mps 742 mmHg 82%
    16:00 +8°C° 1.3 mm 10 mps 741 mmHg 84%
    17:00 +8°C° 0.7 mm 9 mps 741 mmHg 82%
    18:00 +8°C° 0.7 mm 9 mps 740 mmHg 79%
    19:00 +9°C° 0.7 mm 8 mps 740 mmHg 76%
    20:00 +9°C° 0.1 mm 8 mps 740 mmHg 76%
    21:00 +7°C° 0.1 mm 8 mps 740 mmHg 76%
    22:00 +7°C° 0.1 mm 8 mps 740 mmHg 75%
    23:00 +6°C° 0.2 mm 8 mps 739 mmHg 73%

    Tomorrow, 24 October, Wednesday

    Time Temperature Precipitation Wind Pressure Humidity
    00:00 +6°C° 0.2 mm 8 mps 739 mmHg 71%
    01:00 +6°C° 0.2 mm 9 mps 739 mmHg 68%
    02:00 +6°C° 0.1 mm 9 mps 739 mmHg 67%
    03:00 +5°C° 0.1 mm 9 mps 740 mmHg 65%
    04:00 +5°C° 0.1 mm 9 mps 740 mmHg 64%
    05:00 +4°C° 0 mm 8 mps 741 mmHg 62%
    06:00 +4°C° 0 mm 7 mps 742 mmHg 60%
    07:00 +3°C° 0 mm 7 mps 743 mmHg 58%
    08:00 +4°C° 0 mm 8 mps 743 mmHg 53%
    09:00 +5°C° 0 mm 9 mps 744 mmHg 49%
    10:00 +6°C° 0 mm 11 mps 745 mmHg 45%
    11:00 +6°C° 0 mm 11 mps 745 mmHg 44%
    12:00 +7°C° 0 mm 10 mps 746 mmHg 43%
    13:00 +7°C° 0 mm 10 mps 746 mmHg 42%
    14:00 +7°C° 0 mm 9 mps 747 mmHg 43%
    15:00 +6°C° 0 mm 8 mps 747 mmHg 45%
    16:00 +6°C° 0 mm 8 mps 748 mmHg 47%
    17:00 +5°C° 0 mm 7 mps 748 mmHg 50%
    18:00 +4°C° 0 mm 6 mps 749 mmHg 52%
    19:00 +4°C° 0 mm 6 mps 750 mmHg 55%
    20:00 +5°C° 0 mm 5 mps 750 mmHg 58%
    21:00 +3°C° 0 mm 5 mps 750 mmHg 60%
    22:00 +3°C° 0 mm 5 mps 750 mmHg 63%
    23:00 +3°C° 0 mm 5 mps 750 mmHg 66%

    Day after tomorrow, 25 October, Thursday

    Time Temperature Precipitation Wind Pressure Humidity
    00:00 +3°C° 0 mm 5 mps 750 mmHg 69%
    01:00 +2°C° 0 mm 5 mps 750 mmHg 72%
    02:00 +3°C° 0.1 mm 5 mps 749 mmHg 74%
    03:00 +3°C° 0.1 mm 5 mps 748 mmHg 76%
    04:00 +3°C° 0.1 mm 5 mps 747 mmHg 77%
    05:00 +5°C° 0.7 mm 5 mps 746 mmHg 82%
    06:00 +4°C° 0.7 mm 6 mps 746 mmHg 86%
    07:00 +5°C° 0.7 mm 6 mps 745 mmHg 91%
    08:00 +6°C° 0.4 mm 7 mps 744 mmHg 88%
    09:00 +9°C° 0.4 mm 7 mps 744 mmHg 86%
    10:00 +10°C° 0.4 mm 8 mps 743 mmHg 84%
    11:00 +10°C° 0.3 mm 9 mps 743 mmHg 78%
    12:00 +11°C° 0.3 mm 10 mps 743 mmHg 73%
    13:00 +11°C° 0.3 mm 10 mps 743 mmHg 67%
    14:00 +9°C° 0.1 mm 10 mps 743 mmHg 68%
    15:00 +10°C° 0.1 mm 9 mps 744 mmHg 68%
    16:00 +9°C° 0.1 mm 8 mps 744 mmHg 69%
    17:00 +7°C° 0 mm 8 mps 744 mmHg 71%
    18:00 +8°C° 0 mm 7 mps 745 mmHg 72%
    19:00 +7°C° 0 mm 6 mps 745 mmHg 74%
    20:00 +7°C° 0 mm 6 mps 745 mmHg 76%
    21:00 +5°C° 0 mm 6 mps 746 mmHg 78%
    22:00 +5°C° 0 mm 6 mps 746 mmHg 80%
    23:00 +5°C° 0 mm 6 mps 746 mmHg 80%

    26 October, Friday

    Time Temperature Precipitation Wind Pressure Humidity
    00:00 +5°C° 0 mm 6 mps 746 mmHg 81%
    01:00 +5°C° 0 mm 6 mps 747 mmHg 82%
    02:00 +6°C° 0 mm 5 mps 747 mmHg 83%
    03:00 +6°C° 0 mm 5 mps 747 mmHg 84%
    04:00 +6°C° 0 mm 5 mps 747 mmHg 84%
    05:00 +6°C° 0 mm 5 mps 747 mmHg 84%
    06:00 +6°C° 0 mm 5 mps 747 mmHg 84%
    07:00 +6°C° 0 mm 4 mps 747 mmHg 84%
    08:00 +6°C° 0 mm 5 mps 747 mmHg 80%
    09:00 +7°C° 0 mm 5 mps 747 mmHg 76%
    10:00 +8°C° 0 mm 5 mps 747 mmHg 71%
    11:00 +8°C° 0.1 mm 5 mps 746 mmHg 72%
    12:00 +9°C° 0.1 mm 5 mps 746 mmHg 73%
    13:00 +9°C° 0.1 mm 5 mps 746 mmHg 74%
    14:00 +9°C° 0.2 mm 5 mps 745 mmHg 78%
    15:00 +9°C° 0.2 mm 5 mps 745 mmHg 82%
    16:00 +9°C° 0.2 mm 5 mps 744 mmHg 85%
    17:00 +9°C° 0.1 mm 5 mps 744 mmHg 85%
    18:00 +10°C° 0.1 mm 4 mps 744 mmHg 86%
    19:00 +10°C° 0.1 mm 4 mps 743 mmHg 86%
    20:00 +8°C° 0.1 mm 5 mps 743 mmHg 84%
    21:00 +8°C° 0.1 mm 5 mps 743 mmHg 82%
    22:00 +8°C° 0.1 mm 6 mps 742 mmHg 80%
    23:00 +8°C° 0 mm 6 mps 742 mmHg 80%

    27 October, Saturday

    Time Temperature Precipitation Wind Pressure Humidity
    00:00 +7°C° 0 mm 6 mps 742 mmHg 80%
    01:00 +7°C° 0 mm 6 mps 742 mmHg 79%
    02:00 +7°C° 0 mm 6 mps 742 mmHg 79%
    03:00 +6°C° 0 mm 7 mps 741 mmHg 79%
    04:00 +6°C° 0 mm 7 mps 741 mmHg 79%
    05:00 +6°C° 0 mm 7 mps 741 mmHg 80%
    06:00 +5°C° 0 mm 6 mps 742 mmHg 81%
    07:00 +5°C° 0 mm 6 mps 742 mmHg 81%
    08:00 +5°C° 0 mm 7 mps 742 mmHg 77%
    09:00 +5°C° 0 mm 7 mps 743 mmHg 72%
    10:00 +6°C° 0 mm 7 mps 743 mmHg 68%
    11:00 +6°C° 0 mm 7 mps 744 mmHg 65%
    12:00 +6°C° 0 mm 7 mps 744 mmHg 62%
    13:00 +8°C° 0 mm 7 mps 744 mmHg 59%
    14:00 +7°C° 0 mm 6 mps 745 mmHg 61%
    15:00 +7°C° 0 mm 5 mps 745 mmHg 62%
    16:00 +7°C° 0 mm 4 mps 745 mmHg 64%
    17:00 +7°C° 0 mm 3 mps 746 mmHg 67%
    18:00 +5°C° 0 mm 3 mps 746 mmHg 71%
    19:00 +5°C° 0 mm 3 mps 747 mmHg 74%
    20:00 +5°C° 0 mm 3 mps 747 mmHg 76%
    21:00 +5°C° 0 mm 2 mps 747 mmHg 78%
    22:00 +5°C° 0 mm 2 mps 747 mmHg 80%
    23:00 +5°C° 0 mm 2 mps 748 mmHg 82%

    28 October, Sunday

    Time Temperature Precipitation Wind Pressure Humidity
    00:00 +5°C° 0 mm 2 mps 748 mmHg 83%
    01:00 +5°C° 0 mm 2 mps 748 mmHg 85%
    02:00 +5°C° 0 mm 2 mps 748 mmHg 86%
    03:00 +4°C° 0 mm 2 mps 748 mmHg 86%
    04:00 +5°C° 0 mm 1 mps 748 mmHg 87%
    05:00 +4°C° 0 mm 2 mps 748 mmHg 87%
    06:00 +4°C° 0 mm 2 mps 748 mmHg 88%
    07:00 +4°C° 0 mm 2 mps 748 mmHg 88%
    08:00 +5°C° 0 mm 2 mps 748 mmHg 84%
    09:00 +4°C° 0 mm 3 mps 748 mmHg 80%
    10:00 +5°C° 0 mm 3 mps 749 mmHg 77%
    11:00 +5°C° 0.1 mm 3 mps 749 mmHg 74%
    12:00 +7°C° 0.1 mm 3 mps 749 mmHg 72%
    13:00 +6°C° 0.1 mm 4 mps 749 mmHg 69%
    14:00 +6°C° 0.1 mm 4 mps 749 mmHg 69%
    15:00 +5°C° 0.1 mm 4 mps 748 mmHg 70%
    16:00 +5°C° 0.1 mm 5 mps 748 mmHg 70%
    17:00 +5°C° 0.2 mm 5 mps 748 mmHg 71%
    18:00 +3°C° 0.2 mm 5 mps 748 mmHg 72%
    19:00 +3°C° 0.2 mm 6 mps 748 mmHg 73%
    20:00 +3°C° 0.3 mm 6 mps 748 mmHg 74%
    21:00 +2°C° 0.3 mm 6 mps 748 mmHg 74%
    22:00 +2°C° 0.3 mm 7 mps 747 mmHg 74%
    23:00 +2°C° 0.9 mm 7 mps 747 mmHg 77%

    29 October, Monday

    Time Temperature Precipitation Wind Pressure Humidity
    00:00 0°C° 0.9 mm 7 mps 747 mmHg 79%
    01:00 0°C° 0.9 mm 7 mps 746 mmHg 81%
    02:00 0°C° 0.6 mm 8 mps 745 mmHg 82%
    03:00 -1°C° 0.6 mm 8 mps 745 mmHg 84%
    04:00 -1°C° 0.6 mm 9 mps 744 mmHg 85%
    05:00 -1°C° 0.8 mm 9 mps 743 mmHg 86%
    06:00 -1°C° 0.8 mm 8 mps 743 mmHg 87%
    07:00 -1°C° 0.8 mm 8 mps 742 mmHg 88%
    08:00 -1°C° 0.5 mm 8 mps 742 mmHg 89%
    09:00 -1°C° 0.5 mm 8 mps 741 mmHg 89%
    10:00 -2°C° 0.5 mm 8 mps 741 mmHg 90%
    11:00 -1°C° 0.4 mm 8 mps 740 mmHg 91%
    12:00 -1°C° 0.4 mm 8 mps 740 mmHg 91%
    13:00 -1°C° 0.4 mm 7 mps 739 mmHg 92%
    14:00 -1°C° 0.6 mm 6 mps 739 mmHg 93%
    15:00 -1°C° 0.6 mm 6 mps 738 mmHg 94%
    16:00 0°C° 0.6 mm 5 mps 738 mmHg 95%
    17:00 +1°C° 0.6 mm 5 mps 737 mmHg 95%
    18:00 +1°C° 0.6 mm 4 mps 737 mmHg 96%
    19:00 +1°C° 0.6 mm 4 mps 737 mmHg 96%
    20:00 +2°C° 0.8 mm 3 mps 737 mmHg 97%
    21:00 +2°C° 0.8 mm 3 mps 736 mmHg 97%
    22:00 +3°C° 0.8 mm 3 mps 736 mmHg 97%
    23:00 +4°C° 0.3 mm 2 mps 736 mmHg 98%
    Show more